Other Public Products
Issued by NWS Charleston, SC

Current Version | Previous Version | Text Only | Print | Product List | Glossary Off
Versions: 1 2 3 4 5 6 7 8 9 10 11 12 13 14 15 16 17 18 19 20 21 22 23 24 25 26 27 28 29 30 31 32 33 34 35 36 37 38 39 40 41 42 43 44 45 46 47 48 49 50

097
FPUS82 KCHS 102027
OPUCHS

TEST...KCHS/KSAV Gateway Observations...TEST
National Weather Service Charleston SC
300 PM EST SAT DEC 10 2016

NOTE: "fair" indicates few or no clouds below 12,000 feet with no
significant weather and/or obstructions to visibility.

SCZ050-WAZ558-NCZ071-TXZ119-213-PAZ071-DCZ001-FLZ074-172-MI076-
NYZ176-178-MAZ016-IL014-TNZ027-NJZ106-GAZ044-MD014-102100-
...Gateway Observations for Charleston International...

CITY           SKY/WX    TMP DP  RH WIND       PRES   REMARKS
Chas Airport   SUNNY     52  16  24 N10       30.47F
Seattle        CLOUDY    43  36  76 S10G21    29.84F
Charlotte      MOSUNNY   43  13  29 W5        30.45F
Dallas DFW     CLOUDY    48  28  46 S20       30.27F
Dallas Love    CLOUDY    48  27  44 S15       30.31F
Philladelphia  MOSUNNY   37  12  35 NW16      30.39R WCI  28
Wash National  MOSUNNY   37  13  37 NW12      30.45S WCI  29
Baltimore      MOSUNNY   35  14  42 W17G23    30.42S WCI  25
Miami          CLOUDY    71  68  90 NE13G20   30.17F
Detroit        PTSUNNY   29  16  58 W15       30.41S WCI  18
Newark         PTSUNNY   35  17  47 W12       30.35S WCI  27
Laguardia      PTSUNNY   36  18  48 NW16G25   30.35R WCI  26
J F K          PTSUNNY   36  15  42 W15G24    30.36R WCI  27
Boston Logan   PTCLDY    29   5  36 W14G22    30.28R WCI  18
Ft. Lauderdale CLOUDY    73  67  81 NE14      30.17F
Chicago O`Hare CLOUDY    23  13  65 W9        30.42F WCI  13
Chicago Midway CLOUDY    25  13  60 SW8       30.44F WCI  16
Houston Bush   CLOUDY    53  36  52 E8        30.39F
Houston Hobby  CLOUDY    54  41  61 E13       30.38F
Nashville      MOSUNNY   40  12  32 VRB3      30.49F
Atlanta        MOSUNNY   48  12  23 VRB5      30.41F

$$

GAZ044-118-TXZ119-213-NCZ071-DCZ001-MDZ014-506-PAZ021-071-NJZ106-
NYZ176-178-MAZ106-OHZ011-021-055-MIZ076-KYZ091-ILZ014-INZ047-
MNZ060-102100-
...Gateway Observations for Savannah International...

CITY           SKY/WX    TMP DP  RH WIND       PRES   REMARKS
Savannah Arpt  SUNNY     54  18  24 NE5       30.45F
Atlanta        MOSUNNY   48  12  23 VRB5      30.41F
Charlotte      MOSUNNY   43  13  29 W5        30.45F
Dallas DFW     CLOUDY    48  28  46 S20       30.27F
Houston Bush   CLOUDY    53  36  52 E8        30.39F
Wash National  MOSUNNY   37  13  37 NW12      30.45S WCI  29
Wash Dulles    MOSUNNY   34  11  38 NW14      30.44S WCI  25
Baltimore      MOSUNNY   35  14  42 W17G23    30.42S WCI  25
Philadelphia   MOSUNNY   37  12  35 NW16      30.39R WCI  28
Newark         PTSUNNY   35  17  47 W12       30.35S WCI  27
Laguardia      PTSUNNY   36  18  48 NW16G25   30.35R WCI  26
J F K          PTSUNNY   36  15  42 W15G24    30.36R WCI  27
Boston         PTCLDY    29   5  36 W14G22    30.28R WCI  18
Pittsburg      PTSUNNY   28  12  51 W12       30.41F WCI  18
Akron          PTSUNNY   26  12  55 W10       30.42S WCI  16
Cleveland      CLOUDY    28  15  58 SW14      30.46S WCI  17
Cincinnati     PTSUNNY   29  16  58 SW7       30.47F WCI  22
Columbus         N/A     27  15  59 W8        30.48S WCI  19
Detroit        PTSUNNY   29  16  58 W15       30.41S WCI  18
Chicago O`Hare CLOUDY    23  13  65 W9        30.42F WCI  13
Minneapolis    CLOUDY    11   1  64 S5        30.37F WCI   3
Indianapolis   CLOUDY    29  15  56 SW7       30.46F WCI  22

$$




USA.gov is the U.S. government's official web portal to all federal, state and local government web resources and services.